Raleigh, IL

6:24 AM CST on February 09, 2016 (GMT -0600)
Harrisburg-Raleigh

Weather History for KHSB - November, 2013

Change the Weather History Date:

Friday, November 1, 2013

  Actual Average (WUND) Record (WUND)
Temperature  
Mean Temperature 52 °F -  
Max Temperature 64 °F - - (-1)
Min Temperature 41 °F - - (-1)
Degree Days  
Heating Degree Days 12    
Growing Degree Days 2 (Base 50)    
Moisture  
Dew Point 47 °F    
Average Humidity 82    
Maximum Humidity 100    
Minimum Humidity 45    
Precipitation  
Precipitation 0.00 in - - ()
Sea Level Pressure  
Sea Level Pressure 29.76 in    
Wind  
Wind Speed 7 mph (WSW)    
Max Wind Speed 16 mph    
Max Gust Speed 22 mph    
Visibility 10 miles    
Events      
Averages and records for this station are not official NWS values.
T = Trace of Precipitation, MM = Missing Value Source: NWS Daily Summary

Daily Weather History Graph

Daily Weather History Graph

Search for Another Location

Airport or City:

Trip Planner

Search our weather history database for the weather conditions in past years. The results will help you decide how hot, cold, wet, or windy it might be!

Date:

Astronomy

Nov. 01, 2013 Rise Set
Actual Time 7:19 AM CDT 5:55 PM CDT
Civil Twilight 6:52 AM CDT 6:22 PM CDT
Nautical Twilight 6:21 AM CDT 6:53 PM CDT
Astronomical Twilight 5:50 AM CDT 7:23 PM CDT
Moon 5:13 AM CDT (11/1) 4:46 PM CDT (11/1)
Length of Visible Light 11h 29m
Length of Day
10h 35m
Waning Crescent, 4% of the Moon is Illuminated
Nov 1
Waning Crescent
Nov 3
New
Nov 9
First Quarter
Nov 17
Full
Nov 25
Last Quarter

Hourly Weather History & Observations

Time (CDT) Temp. Windchill Dew Point Humidity Pressure Visibility Wind Dir Wind Speed Gust Speed Precip Events Conditions
12:15 AM 54.3 °F - 52.9 °F 95% 29.66 in 10.0 mi West 11.5 mph - N/A   Scattered Clouds
12:35 AM 53.8 °F - 52.7 °F 96% 29.68 in 10.0 mi West 10.4 mph - N/A   Scattered Clouds
12:55 AM 53.2 °F - 51.8 °F 95% 29.69 in 10.0 mi West 12.7 mph - N/A   Clear
1:15 AM 52.7 °F - 50.9 °F 94% 29.70 in 10.0 mi West 11.5 mph - N/A   Clear
1:35 AM 51.8 °F - 50.2 °F 94% 29.71 in 10.0 mi West 9.2 mph - N/A   Clear
1:55 AM 50.9 °F - 49.5 °F 95% 29.71 in 10.0 mi West 8.1 mph - N/A   Clear
2:15 AM 50.9 °F - 49.5 °F 95% 29.71 in 10.0 mi WSW 5.8 mph - N/A   Clear
2:35 AM 50.4 °F - 49.5 °F 97% 29.72 in 10.0 mi WSW 4.6 mph - N/A   Clear
2:55 AM 50.0 °F - 49.3 °F 97% 29.72 in 10.0 mi WSW 3.5 mph - N/A   Clear
3:15 AM 48.4 °F - 48.0 °F 99% 29.71 in 10.0 mi South 4.6 mph - N/A   Clear
3:35 AM 49.1 °F - 49.1 °F 100% 29.72 in 10.0 mi SSW 4.6 mph - N/A   Clear
3:55 AM 48.6 °F - 48.6 °F 100% 29.73 in 10.0 mi SSW 3.5 mph - N/A   Clear
4:15 AM 48.2 °F - 48.2 °F 100% 29.73 in 10.0 mi SSW 3.5 mph - N/A   Clear
4:35 AM 47.8 °F - 47.8 °F 100% 29.73 in 10.0 mi SSW 3.5 mph - N/A   Clear
4:55 AM 47.8 °F - 47.8 °F 100% 29.73 in 10.0 mi SSW 4.6 mph - N/A   Clear
5:15 AM 47.7 °F - 47.7 °F 100% 29.72 in 10.0 mi SSW 3.5 mph - N/A   Clear
5:35 AM 47.3 °F - 47.3 °F 100% 29.72 in 10.0 mi Calm Calm - N/A   Clear
5:55 AM 46.6 °F - 46.6 °F 100% 29.73 in 10.0 mi South 3.5 mph - N/A   Clear
6:15 AM 46.4 °F 45.2 °F 46.4 °F 100% 29.73 in 10.0 mi South 3.5 mph - N/A   Clear
6:35 AM 46.8 °F - 46.8 °F 100% 29.73 in 10.0 mi SSW 4.6 mph - N/A   Clear
6:55 AM 46.8 °F - 46.8 °F 100% 29.74 in 10.0 mi Calm Calm - N/A   Clear
7:15 AM 47.1 °F - 47.1 °F 100% 29.74 in 10.0 mi SSW 4.6 mph - N/A   Clear
7:35 AM 47.5 °F - 47.5 °F 100% 29.74 in 10.0 mi SSW 4.6 mph - N/A   Clear
7:55 AM 48.2 °F - 48.2 °F 100% 29.75 in 10.0 mi SSW 5.8 mph - N/A   Scattered Clouds
8:15 AM 49.1 °F - 49.1 °F 100% 29.75 in 10.0 mi SSW 5.8 mph - N/A   Mostly Cloudy
8:35 AM 50.0 °F - 50.0 °F 100% 29.76 in 10.0 mi SSW 5.8 mph - N/A   Overcast
8:55 AM 51.3 °F - 51.3 °F 100% 29.77 in 10.0 mi SW 8.1 mph - N/A   Scattered Clouds
9:15 AM 52.7 °F - 51.8 °F 97% 29.77 in 10.0 mi SSW 8.1 mph - N/A   Clear
9:35 AM 53.4 °F - 51.6 °F 94% 29.76 in 10.0 mi SW 6.9 mph - N/A   Clear
9:55 AM 54.5 °F - 51.8 °F 91% 29.76 in 10.0 mi SSW 6.9 mph - N/A   Clear
10:15 AM 56.3 °F - 51.8 °F 85% 29.75 in 10.0 mi SW 6.9 mph - N/A   Clear
10:35 AM 57.4 °F - 50.5 °F 78% 29.75 in 10.0 mi SW 9.2 mph - N/A   Clear
10:55 AM 59.0 °F - 51.4 °F 76% 29.75 in 10.0 mi WSW 6.9 mph - N/A   Clear
11:15 AM 59.9 °F - 48.9 °F 67% 29.75 in 10.0 mi West 8.1 mph - N/A   Clear
11:35 AM 61.3 °F - 49.6 °F 65% 29.75 in 10.0 mi West 11.5 mph 16.1 mph N/A   Clear
11:55 AM 61.7 °F - 49.1 °F 63% 29.75 in 10.0 mi West 9.2 mph - N/A   Clear
12:15 PM 62.6 °F - 49.1 °F 61% 29.76 in 10.0 mi West 12.7 mph - N/A   Clear
12:35 PM 61.9 °F - 48.9 °F 62% 29.76 in 10.0 mi West 12.7 mph 17.3 mph N/A   Clear
12:55 PM 62.8 °F - 48.2 °F 59% 29.75 in 10.0 mi WSW 9.2 mph - N/A   Clear
1:15 PM 62.8 °F - 45.3 °F 53% 29.74 in 10.0 mi West 11.5 mph - N/A   Clear
1:35 PM 63.3 °F - 45.5 °F 52% 29.73 in 10.0 mi West 10.4 mph - N/A   Clear
1:55 PM 62.2 °F - 44.8 °F 53% 29.73 in 10.0 mi West 13.8 mph - N/A   Scattered Clouds
2:15 PM 63.5 °F - 45.0 °F 51% 29.73 in 10.0 mi WNW 13.8 mph - N/A   Scattered Clouds
2:35 PM 64.4 °F - 45.3 °F 50% 29.73 in 10.0 mi West 16.1 mph 21.9 mph N/A   Scattered Clouds
2:55 PM 64.2 °F - 44.8 °F 49% 29.73 in 10.0 mi West 15.0 mph 21.9 mph N/A   Clear
3:15 PM 63.9 °F - 43.0 °F 47% 29.74 in 10.0 mi West 13.8 mph - N/A   Scattered Clouds
3:35 PM 63.9 °F - 42.3 °F 45% 29.74 in 10.0 mi WNW 16.1 mph 20.7 mph N/A   Clear
5:15 PM 61.5 °F - 42.1 °F 49% 29.77 in 10.0 mi West 12.7 mph 16.1 mph N/A   Scattered Clouds
5:35 PM 60.8 °F - 42.4 °F 51% 29.77 in 10.0 mi WNW 5.8 mph - N/A   Scattered Clouds
5:55 PM 58.6 °F - 42.3 °F 55% 29.77 in 10.0 mi WNW 6.9 mph - N/A   Scattered Clouds
6:15 PM 55.4 °F - 42.8 °F 63% 29.78 in 10.0 mi West 4.6 mph - N/A   Clear
6:35 PM 55.9 °F - 42.8 °F 61% 29.78 in 10.0 mi West 4.6 mph - N/A   Clear
6:55 PM 52.9 °F - 43.0 °F 69% 29.79 in 10.0 mi West 3.5 mph - N/A   Scattered Clouds
7:15 PM 51.3 °F - 44.2 °F 77% 29.80 in 10.0 mi WNW 3.5 mph - N/A   Scattered Clouds
7:35 PM 51.4 °F - 45.5 °F 80% 29.81 in 10.0 mi WNW 4.6 mph - N/A   Mostly Cloudy
7:55 PM 51.8 °F - 45.5 °F 79% 29.82 in 10.0 mi WNW 3.5 mph - N/A   Mostly Cloudy
8:15 PM 51.6 °F - 45.3 °F 79% 29.83 in 10.0 mi NW 4.6 mph - N/A   Scattered Clouds
8:35 PM 52.0 °F - 44.4 °F 75% 29.83 in 10.0 mi WNW 4.6 mph - N/A   Clear
8:55 PM 52.0 °F - 44.1 °F 74% 29.84 in 10.0 mi WNW 3.5 mph - N/A   Clear
9:15 PM 52.0 °F - 43.3 °F 72% 29.84 in 10.0 mi NW 3.5 mph - N/A   Clear
9:35 PM 52.0 °F - 43.2 °F 72% 29.85 in 10.0 mi Calm Calm - N/A   Clear
9:55 PM 49.3 °F - 43.5 °F 81% 29.86 in 10.0 mi WNW 3.5 mph - N/A   Clear
10:15 PM 47.3 °F - 43.0 °F 85% 29.86 in 10.0 mi WNW 3.5 mph - N/A   Clear
10:35 PM 43.9 °F 42.3 °F 41.5 °F 91% 29.87 in 10.0 mi WNW 3.5 mph - N/A   Clear
10:55 PM 43.9 °F 42.3 °F 42.8 °F 96% 29.87 in 10.0 mi WNW 3.5 mph - N/A   Clear
11:15 PM 45.0 °F - 43.7 °F 95% 29.87 in 10.0 mi Calm Calm - N/A   Clear
11:35 PM 41.2 °F - 40.5 °F 97% 29.86 in 10.0 mi Calm Calm - N/A   Clear
11:55 PM 43.9 °F - 43.9 °F 100% 29.87 in 10.0 mi Calm Calm - N/A   Mostly Cloudy